User: anonymous   Login
Location: Chacón
(10.5789°N, 66.9317°W)
Time: 05:57:41
(UTC+00:00)
Language:

Cosmos 2227 Rocket - Orbit

View from above orbital plane
View from above orbital plane
View from above satellite
View from above satellite

Ground track
Ground track

The orbit data is extracted from the following two-line orbital elements,

1 22285U 92093B   24201.69909937  .00000328  00000-0  19276-3 0  9994
2 22285  71.0201 179.4645 0003370 168.4924 191.6276 14.15269046628540
Epoch (UTC): 19 July 2024 16:46:42
Eccentricity: 0.0003370
inclination: 71.0201°
perigee height: 839 km
apogee height: 844 km
right ascension of ascending node: 179.4645°
argument of perigee: 168.4924°
revolutions per day: 14.15269046
mean anomaly at epoch: 191.6276°
orbit number at epoch: 62854

The dashed part of the orbit path shows where the satellite is in the earth's shadow,  

DLR